| time (UTC) | temp C | wind direction | speed KPH | gust KPH | rain 1hr cm | rain 24hr cm | rain mn cm | humidity % | barometer mb |
| 20260510220015 | 15 | 171 | 0.0 | 3.2 | 0.00 | 5.59 | 1.42 | 83 | 1015.1 |
| 20260510214546 | 15 | 171 | 1.6 | 6.4 | 0.00 | 5.59 | 1.42 | 83 | 1015.2 |
| 20260510213026 | 15 | 171 | 1.6 | 6.4 | 0.00 | 5.59 | 1.42 | 83 | 1015.0 |
| 20260510211524 | 15 | 168 | 8.0 | 12.9 | 0.00 | 5.59 | 1.42 | 83 | 1015.2 |
| 20260510210042 | 15 | 169 | 1.6 | 11.3 | 0.00 | 5.59 | 1.42 | 82 | 1015.1 |
| 20260510204521 | 15 | 167 | 3.2 | 14.5 | 0.00 | 5.59 | 1.42 | 82 | 1015.1 |
| 20260510203038 | 15 | 164 | 0.0 | 0.0 | 0.00 | 5.59 | 1.42 | 81 | 1014.9 |
| 20260510201513 | 15 | 176 | 0.0 | 0.0 | 0.00 | 5.59 | 1.42 | 80 | 1014.9 |
| 20260510200014 | 15 | 176 | 0.0 | 0.0 | 0.00 | 5.59 | 1.42 | 79 | 1015.0 |
| 20260510194512 | 15 | 177 | 0.0 | 0.0 | 0.00 | 5.59 | 1.42 | 79 | 1014.9 |
| 20260510193012 | 15 | 178 | 0.0 | 0.0 | 0.00 | 5.59 | 1.42 | 78 | 1014.9 |
| 20260510191549 | 16 | 175 | 0.0 | 0.0 | 0.00 | 5.59 | 1.42 | 78 | 1014.8 |
| 20260510190019 | 16 | 175 | 0.0 | 0.0 | 0.00 | 5.59 | 1.42 | 78 | 1014.8 |
| 20260510184523 | 16 | 174 | 0.0 | 3.2 | 0.00 | 5.59 | 1.42 | 77 | 1014.5 |
| 20260510183042 | 16 | 175 | 0.0 | 0.0 | 0.00 | 5.59 | 1.42 | 77 | 1014.4 |
| 20260510181519 | 16 | 175 | 0.0 | 12.9 | 0.00 | 5.59 | 1.42 | 76 | 1014.3 |
| 20260510180018 | 16 | 175 | 4.8 | 14.5 | 0.00 | 5.59 | 1.42 | 74 | 1014.2 |
| 20260510174535 | 17 | 175 | 1.6 | 11.3 | 0.00 | 5.59 | 1.42 | 72 | 1014.0 |
| 20260510173020 | 17 | 175 | 6.4 | 16.1 | 0.00 | 5.59 | 1.42 | 71 | 1014.0 |
| 20260510171520 | 17 | 182 | 6.4 | 11.3 | 0.00 | 5.59 | 1.42 | 69 | 1014.0 |
| 20260510170019 | 17 | 181 | 1.6 | 12.9 | 0.00 | 5.59 | 1.42 | 68 | 1014.0 |
| 20260510164522 | 18 | 183 | 1.6 | 11.3 | 0.00 | 5.59 | 1.42 | 68 | 1014.1 |
| 20260510163037 | 18 | 185 | 4.8 | 9.7 | 0.00 | 5.59 | 1.42 | 68 | 1013.9 |
| 20260510161512 | 18 | 185 | 4.8 | 16.1 | 0.00 | 5.59 | 1.42 | 67 | 1013.9 |
| 20260510160016 | 18 | 211 | 1.6 | 8.0 | 0.00 | 5.59 | 1.42 | 66 | 1013.9 |
| 20260510154516 | 18 | 211 | 3.2 | 12.9 | 0.00 | 5.59 | 1.42 | 66 | 1014.1 |
| 20260510153011 | 18 | 211 | 6.4 | 16.1 | 0.00 | 5.59 | 1.42 | 66 | 1014.1 |
| 20260510151512 | 19 | 181 | 8.0 | 12.9 | 0.00 | 5.59 | 1.42 | 64 | 1014.2 |
| 20260510150026 | 19 | 178 | 3.2 | 14.5 | 0.00 | 5.59 | 1.42 | 63 | 1014.2 |
| 20260510144522 | 19 | 156 | 6.4 | 16.1 | 0.00 | 5.59 | 1.42 | 62 | 1014.4 |
| 20260510143022 | 20 | 117 | 3.2 | 11.3 | 0.00 | 5.59 | 1.42 | 62 | 1014.5 |
| 20260510141521 | 20 | 114 | 1.6 | 9.7 | 0.00 | 5.59 | 1.42 | 63 | 1014.5 |
| 20260510140018 | 20 | 117 | 1.6 | 17.7 | 0.00 | 5.59 | 1.42 | 63 | 1014.5 |
| 20260510134512 | 20 | 128 | 6.4 | 14.5 | 0.00 | 5.59 | 1.42 | 63 | 1014.5 |
| 20260510133046 | 20 | 118 | 3.2 | 14.5 | 0.00 | 5.59 | 1.42 | 65 | 1014.8 |
| 20260510131529 | 19 | 118 | 8.0 | 11.3 | 0.00 | 5.59 | 1.42 | 64 | 1014.8 |
| 20260510130023 | 19 | 117 | 1.6 | 9.7 | 0.00 | 5.59 | 1.42 | 64 | 1014.9 |
| 20260510124514 | 19 | 116 | 8.0 | 16.1 | 0.00 | 5.59 | 1.42 | 65 | 1015.0 |
| 20260510123050 | 19 | 113 | 0.0 | 11.3 | 0.00 | 5.59 | 1.42 | 66 | 1015.1 |
| 20260510121545 | 18 | 114 | 1.6 | 6.4 | 0.00 | 5.59 | 1.42 | 68 | 1015.3 |
| 20260510120020 | 18 | 115 | 0.0 | 3.2 | 0.00 | 5.59 | 1.42 | 69 | 1015.3 |
| 20260510114516 | 17 | 115 | 0.0 | 3.2 | 0.00 | 5.59 | 1.42 | 71 | 1015.4 |
| 20260510113014 | 17 | 115 | 0.0 | 6.4 | 0.00 | 5.59 | 1.42 | 73 | 1015.6 |
| 20260510111529 | 17 | 116 | 4.8 | 12.9 | 0.00 | 5.59 | 1.42 | 74 | 1015.9 |
| 20260510110028 | 16 | 124 | 1.6 | 6.4 | 0.00 | 5.59 | 1.42 | 76 | 1016.0 |
| 20260510104528 | 16 | 138 | 1.6 | 6.4 | 0.00 | 5.59 | 1.42 | 75 | 1016.1 |
| 20260510103029 | 16 | 138 | 1.6 | 6.4 | 0.00 | 5.59 | 1.42 | 75 | 1016.4 |
| 20260510101528 | 16 | 139 | 0.0 | 4.8 | 0.00 | 5.59 | 1.42 | 77 | 1016.2 |
| 20260510100018 | 17 | 139 | 1.6 | 4.8 | 0.00 | 5.59 | 1.42 | 78 | 1016.3 |
| 20260510094511 | 16 | 139 | 0.0 | 4.8 | 0.00 | 5.59 | 1.42 | 77 | 1016.5 |
| 20260510093027 | 16 | 140 | 0.0 | 4.8 | 0.00 | 5.59 | 1.42 | 79 | 1016.6 |
| 20260510091522 | 16 | 140 | 0.0 | 1.6 | 0.00 | 5.59 | 1.42 | 84 | 1016.6 |
| 20260510090040 | 15 | 139 | 0.0 | 3.2 | 0.00 | 5.59 | 1.42 | 87 | 1016.8 |
| 20260510084511 | 15 | 138 | 1.6 | 6.4 | 0.10 | 5.59 | 1.42 | 89 | 1016.9 |
| 20260510083036 | 14 | 134 | 0.0 | 6.4 | 0.10 | 5.59 | 1.42 | 90 | 1017.1 |
| 20260510081533 | 13 | 130 | 3.2 | 8.0 | 0.10 | 5.59 | 1.42 | 90 | 1017.3 |
| 20260510080026 | 13 | 115 | 3.2 | 11.3 | 0.10 | 5.59 | 1.42 | 91 | 1017.4 |
| 20260510074545 | 12 | 115 | 3.2 | 11.3 | 0.20 | 5.51 | 1.40 | 90 | 1017.6 |
| 20260510073024 | 12 | 116 | 3.2 | 9.7 | 0.61 | 5.51 | 1.40 | 90 | 1017.6 |
| 20260510071522 | 12 | 119 | 1.6 | 6.4 | 1.09 | 5.51 | 1.40 | 90 | 1018.0 |
| 20260510070010 | 12 | 57 | 4.8 | 9.7 | 1.09 | 5.51 | 1.40 | 90 | 1017.2 |
| 20260510064533 | 12 | 240 | 1.6 | 3.2 | 0.89 | 5.31 | 1.35 | 90 | 1018.5 |
| 20260510063019 | 12 | 240 | 0.0 | 1.6 | 0.51 | 4.90 | 1.24 | 90 | 1018.3 |
| 20260510061515 | 12 | 239 | 0.0 | 1.6 | 0.00 | 4.39 | 1.12 | 89 | 1018.4 |
| 20260510060017 | 12 | 238 | 0.0 | 4.8 | 0.00 | 4.39 | 1.12 | 89 | 1018.3 |
| 20260510054515 | 12 | 241 | 0.0 | 1.6 | 0.10 | 4.39 | 1.12 | 89 | 1018.3 |
| 20260510053038 | 12 | 240 | 0.0 | 1.6 | 0.71 | 4.39 | 1.12 | 89 | 1018.4 |
| 20260510051515 | 12 | 241 | 0.0 | 4.8 | 0.89 | 4.39 | 1.12 | 89 | 1018.3 |
| 20260510050014 | 12 | 241 | 0.0 | 8.0 | 0.99 | 4.39 | 1.12 | 88 | 1018.4 |
| 20260510044517 | 12 | 240 | 1.6 | 6.4 | 1.09 | 4.29 | 1.09 | 88 | 1018.3 |
| 20260510043035 | 12 | 240 | 1.6 | 6.4 | 1.30 | 3.61 | 0.91 | 87 | 1018.4 |
| 20260510041526 | 12 | 240 | 0.0 | 1.6 | 2.01 | 3.51 | 0.89 | 87 | 1018.2 |
| 20260510040024 | 12 | 241 | 1.6 | 6.4 | 2.49 | 3.40 | 0.86 | 87 | 1018.3 |
| 20260510034516 | 12 | 241 | 1.6 | 4.8 | 2.59 | 3.20 | 0.81 | 86 | 1018.2 |
| 20260510033030 | 12 | 210 | 0.0 | 0.0 | 1.91 | 2.31 | 0.58 | 85 | 1018.5 |
| 20260510031521 | 12 | 210 | 0.0 | 1.6 | 1.19 | 1.40 | 0.36 | 84 | 1018.5 |
| 20260510030036 | 12 | 213 | 1.6 | 4.8 | 0.71 | 0.79 | 0.20 | 84 | 1018.2 |
| 20260510024527 | 13 | 215 | 4.8 | 8.0 | 0.61 | 0.61 | 0.15 | 82 | 1018.1 |
| 20260510023021 | 13 | 215 | 4.8 | 6.4 | 0.41 | 0.41 | 0.10 | 81 | 1018.0 |
| 20260510021518 | 13 | 215 | 0.0 | 3.2 | 0.20 | 0.20 | 0.05 | 79 | 1017.9 |
| 20260510020014 | 13 | 213 | 3.2 | 8.0 | 0.10 | 0.10 | 0.03 | 77 | 1018.1 |
| 20260510014529 | 13 | 230 | 1.6 | 3.2 | 0.00 | 0.00 | 0.00 | 75 | 1017.8 |
| 20260510013022 | 13 | 236 | 1.6 | 4.8 | 0.00 | 0.00 | 0.00 | 74 | 1018.1 |
| 20260510011543 | 13 | 237 | 1.6 | 8.0 | 0.00 | 0.00 | 0.00 | 74 | 1018.0 |
| 20260510010037 | 13 | 236 | 1.6 | 8.0 | 0.00 | 0.00 | 0.00 | 74 | 1018.0 |
| 20260510004520 | 13 | 235 | 3.2 | 8.0 | 0.00 | 0.00 | 0.00 | 74 | 1017.9 |
| 20260510003038 | 14 | 230 | 8.0 | 14.5 | 0.00 | 0.00 | 0.00 | 73 | 1018.3 |
| 20260510001532 | 14 | 208 | 6.4 | 12.9 | 0.00 | 0.00 | 0.00 | 72 | 1018.3 |
| 20260510000026 | 14 | 281 | 8.0 | 12.9 | 0.00 | 0.00 | 0.00 | 71 | 1018.6 |
| 20260509234523 | 15 | 285 | 1.6 | 4.8 | 0.00 | 0.00 | 0.00 | 70 | 1018.9 |
| 20260509233038 | 15 | 284 | 3.2 | 6.4 | 0.00 | 0.00 | 0.00 | 70 | 1018.8 |
| 20260509231528 | 15 | 286 | 0.0 | 4.8 | 0.00 | 0.00 | 0.00 | 69 | 1018.9 |
| 20260509230010 | 15 | 287 | 4.8 | 11.3 | 0.00 | 0.00 | 0.00 | 68 | 1019.0 |
| 20260509224529 | 15 | 285 | 3.2 | 8.0 | 0.00 | 0.00 | 0.00 | 67 | 1018.6 |
| 20260509223026 | 16 | 228 | 0.0 | 3.2 | 0.00 | 0.00 | 0.00 | 66 | 1018.5 |
| 20260509221528 | 16 | 228 | 3.2 | 8.0 | 0.00 | 0.00 | 0.00 | 66 | 1018.4 |